星链-36271(STARLINK-36271)

导读

STARLINK-36271(NORAD编号68703)是SpaceX星链(Starlink)低轨互联网星座中的一颗卫星,该项目由SpaceX在2015年启动,目标部署超4.2万颗卫星,打造覆盖全球的高速天基互联网系统。星链卫星集中运行在300-550公里近地轨道,STARLINK-36271作为组网卫星,采用Ku/Ka频段,支持卫星通信互联,可为偏远地区、海洋、航空等传统网络覆盖空白场景提供高速互联网接入,助力星链实现全球无缝网络覆盖的建设目标。

Basic Information
目录编号:
68703
目录名称:
STARLINK-36271
国际标识:
2026-081E
轨道中心:
EARTH
卫星名称:
星链-36271
卫星全名:
星链-36271(STARLINK-36271)
卫星状态:
在轨 (已飞行150 天)
发射日期:
2026-04-14 UTC
国别 :
美国 (US)
星等 :
--
This satellite is enrolled in the Space Conjunction Data Service (SCDS) and the current flight risk assessment level is: No High Risk
Orbit Information
数据来源 国际轨道数据
星历时间: 2026-09-11T09:07:14+0800
15小时前
查看轨道信息
半长轴: 6840.833km
偏心率: 0.0001216
轨道倾角: 53.158°
近地点辐角 96.969°
升交点赤经 250.162°
平近点角 263.145°
近地点: 461.864km
远地点: 463.528km
周期: 93.848分钟
每日圈数: 15.344027
Detailed Information
固有亮度:
5
最大亮度:
2.5
卫星平台:
Starlink V1.0
覆盖范围:
全球
运营商:
太空探索技术公司
运营商所在国:
美国
制造商(研发单位):
太空探索技术公司
制造商所在国:
美国
使用方式:
暂无
Satellite Introduction
Starlink 计划是 SpaceX 推出的全球卫星互联网项目,通过发射低轨道卫星,为全球尤其是偏远地区提供高速、低延迟的互联网服务。自 2019 年起,Starlink 已部署数千颗卫星,旨在缩小全球数字鸿沟,推动互联网普及。该项目还为军事、航空等行业提供通信支持,带来广泛经济效益。
2D Orbit Map
3D Orbit Map
Orbit Altitude Analysis Chart
Orbit Inclination Analysis Chart
Orbit Comprehensive Analysis Chart
View Comprehensive Chart
Conjunction Data List
Event ID Objects TCA Miss Dist (km) Collision Risk Probability Collision Risk Index (CRI) Action
CDM_260913-095005-803006-870321
2026-09-13T
09:50:51+0000
0.663 km
远距离
4.730814E-5 中风险 0.68
CDM_260913-165205-803006-870321
2026-09-13T
16:52:55+0000
1.608 km
极远距离
2.545093E-6 低风险 0.43
CDM_260913-151905-803006-870321
2026-09-13T
15:19:07+0000
1.731 km
极远距离
2.061932E-6 低风险 0.41
CDM_260913-081705-803006-870321
2026-09-13T
08:17:03+0000
2.640 km
极远距离
8.38087E-7 极低风险 0.33
CDM_260906-002105-186906-870322
2026-09-06T
00:21:18+0000
2.834 km
极远距离
2.65173E-7 极低风险 0.23
Miss Distance Evolution Trend with All Objects
Collision Probability Evolution Trend with All Objects